Tracking 20715 objects as of 27-May-2020
HD Live streaming from Space Station
objects crossing your sky now

FLOCK 3K 3

Track FLOCK 3K 3 now!
10-day predictions
FLOCK 3K 3 is classified as:


NORAD ID: 43892
Int'l Code: 2018-111S
Perigee: 481.2 km
Apogee: 511.1 km
Inclination: 97.3 °
Period: 94.4 minutes
Semi major axis: 6867 km
RCS: Unknown
Launch date: December 27, 2018
Source: United States (US)
Launch site: VOSTOCHNY COSMODROME (VOSTO)
aabbcc
Your satellite tracking list
Your tracking list is empty




NASA's NSSDC Master Catalog

Two Line Element Set (TLE):
1 43892U 18111S   20147.84498072 +.00001961 +00000-0 +79536-4 0  9995
2 43892 097.2677 048.4524 0021756 221.5287 138.4299 15.25592200078733
Source of the keplerian elements: AFSPC